GW4288 Weather Reports


time (UTC)temp
F
wind
direction
speed
knots
gust
knots
rain 1hr
in
rain 24hr
in
rain mn
in
humidity
%
barometer
mb
20260508012652 51 266 0.0 1.7 0.00 0.07 0.01 95 1015.5
20260508012153 51 266 0.0 1.7 0.00 0.07 0.01 95 1015.7
20260508011653 51 266 0.9 1.7 0.00 0.07 0.01 95 1015.6
20260508011153 52 266 0.0 0.0 0.00 0.07 0.01 95 1015.6
20260508010653 52 266 0.0 0.9 0.00 0.07 0.01 95 1015.5
20260508010153 52 266 0.0 1.7 0.00 0.07 0.01 95 1015.5
20260508005945 52 266 0.0 2.6 0.00 0.07 0.01 95 1015.6
20260508005153 52 266 1.7 2.6 0.00 0.07 0.01 95 1015.6
20260508004937 52 266 0.0 0.9 0.00 0.07 0.01 95 1015.6
20260508004152 52 266 0.0 0.9 0.00 0.07 0.01 95 1015.8
20260508003653 52 266 0.0 0.9 0.00 0.07 0.01 95 1015.6
20260508003422 52 266 0.0 0.9 0.00 0.07 0.01 95 1015.8
20260508002700 52 266 0.0 2.6 0.00 0.07 0.01 95 1015.6
20260508002153 52 266 0.0 2.6 0.00 0.07 0.01 95 1015.7
20260508001653 52 266 0.0 2.6 0.00 0.07 0.01 95 1015.6
20260508001152 52 266 0.9 0.9 0.00 0.07 0.01 95 1015.8
20260508000652 53 266 0.0 0.0 0.00 0.07 0.01 95 1015.7
20260508000152 53 266 0.0 0.0 0.00 0.07 0.01 95 1015.6
20260507235653 52 266 0.0 0.0 0.00 0.07 0.01 95 1015.7
20260507235152 52 266 0.0 0.0 0.00 0.07 0.01 95 1015.7
20260507234653 52 266 0.0 0.0 0.00 0.07 0.01 95 1015.7
20260507234215 52 266 0.0 0.9 0.00 0.07 0.01 95 1015.5
20260507234205 52 266 0.0 0.9 0.00 0.07 0.01 95 1015.5
20260507233153 52 266 0.0 0.9 0.00 0.07 0.01 95 1015.5
20260507232938 52 266 0.0 0.9 0.00 0.07 0.01 95 1015.5
20260507232153 52 266 0.0 0.0 0.00 0.07 0.01 95 1015.5
20260507231652 52 266 0.0 0.0 0.00 0.07 0.01 95 1015.4
20260507231153 52 266 0.0 0.9 0.00 0.07 0.01 95 1015.4
20260507230653 53 266 0.0 1.7 0.00 0.07 0.01 95 1015.4
20260507230153 53 266 0.9 1.7 0.01 0.07 0.01 95 1015.4
20260507225653 53 266 0.0 0.0 0.01 0.07 0.01 95 1015.6
20260507225152 53 266 0.0 0.0 0.02 0.07 0.01 96 1015.6
20260507224651 53 266 0.0 0.0 0.03 0.07 0.01 96 1015.5
20260507224143 53 266 0.0 0.0 0.04 0.07 0.01 96 1015.6
20260507223643 53 266 0.0 0.0 0.05 0.07 0.01 96 1015.8
20260507223145 53 266 0.0 0.9 0.05 0.07 0.01 96 1015.8
20260507222645 53 266 0.0 1.7 0.05 0.07 0.01 96 1015.9
20260507222424 53 266 0.0 1.7 0.07 0.07 0.01 96 1015.6
20260507221644 53 266 0.0 1.7 0.07 0.07 0.01 96 1015.9
20260507221144 53 266 0.9 1.7 0.07 0.07 0.01 96 1015.9
20260507220643 53 266 1.7 1.7 0.07 0.07 0.01 96 1015.9
20260507220144 54 230 0.9 0.9 0.06 0.06 0.00 96 1015.9
20260507215644 54 229 0.0 0.0 0.06 0.06 0.06 96 1015.8
20260507215143 54 229 0.0 1.7 0.05 0.05 0.05 96 1015.4
20260507214643 54 229 0.0 1.7 0.04 0.04 0.04 96 1015.6
20260507214210 54 229 0.0 0.0 0.02 0.02 0.02 96 1015.6
20260507214158 54 229 0.0 0.0 0.03 0.03 0.03 96 1015.6
20260507213420 54 230 0.0 0.9 0.02 0.02 0.02 95 1015.7
20260507212643 55 230 0.0 1.7 0.02 0.02 0.02 94 1015.5
20260507212142 55 230 0.9 1.7 0.00 0.00 0.00 93 1015.7
20260507211925 55 135 0.0 0.9 0.00 0.00 0.00 91 1015.4
20260507211143 56 135 0.0 0.9 0.00 0.00 0.00 90 1015.4
20260507210642 56 135 0.0 1.7 0.00 0.00 0.00 89 1015.2
20260507210143 56 135 0.9 2.6 0.00 0.00 0.00 89 1015.3
20260507205928 56 246 1.7 2.6 0.00 0.00 0.00 88 1015.2
20260507205430 56 105 0.0 0.0 0.00 0.00 0.00 87 1015.2
20260507204645 55 105 0.0 0.0 0.00 0.00 0.00 87 1015.0
20260507204418 55 105 0.0 0.0 0.00 0.00 0.00 87 1015.1
20260507203643 56 105 0.0 0.9 0.00 0.00 0.00 87 1015.1
20260507203143 55 105 0.0 0.9 0.00 0.00 0.00 86 1014.9
20260507202930 55 105 0.0 0.9 0.00 0.00 0.00 87 1014.8
20260507202142 55 105 0.0 0.9 0.00 0.00 0.00 87 1014.8
20260507201642 55 105 0.0 0.9 0.00 0.00 0.00 86 1014.8
20260507201418 56 105 0.0 0.0 0.00 0.00 0.00 86 1014.6
20260507200643 56 105 0.0 0.0 0.00 0.00 0.00 85 1014.8
20260507200419 56 105 0.0 0.9 0.00 0.00 0.00 85 1014.7
20260507195643 56 105 0.0 1.7 0.00 0.00 0.00 84 1014.5
20260507195143 56 105 0.9 1.7 0.00 0.00 0.00 82 1014.5
20260507194642 56 105 0.0 0.0 0.00 0.00 0.00 83 1014.5
20260507194142 56 105 0.0 0.0 0.00 0.00 0.00 86 1014.3
20260507193643 55 105 0.0 0.0 0.00 0.00 0.00 85 1014.4
20260507193145 55 105 0.0 2.6 0.00 0.00 0.00 85 1014.4
20260507192645 55 105 0.9 2.6 0.00 0.00 0.00 85 1014.4
20260507192144 55 100 0.0 0.0 0.00 0.00 0.00 84 1014.3
20260507191645 55 100 0.0 0.0 0.00 0.00 0.00 84 1014.2
20260507191145 55 100 0.0 0.9 0.00 0.00 0.00 85 1014.2
20260507190645 55 88 0.0 1.7 0.00 0.00 0.00 84 1014.2
20260507190145 55 88 1.7 1.7 0.00 0.00 0.00 83 1014.1
20260507185645 55 63 0.0 1.7 0.00 0.00 0.00 83 1014.1
20260507185148 55 97 0.0 1.7 0.00 0.00 0.00 83 1014.0
20260507184645 55 99 1.7 2.6 0.00 0.00 0.00 83 1013.6
20260507184145 55 94 1.7 2.6 0.00 0.00 0.00 84 1013.4
20260507183645 55 101 1.7 2.6 0.00 0.00 0.00 83 1013.5
20260507183145 55 94 2.6 2.6 0.00 0.00 0.00 83 1013.3
20260507182644 55 98 1.7 2.6 0.00 0.00 0.00 83 1013.2
20260507182419 55 104 2.6 2.6 0.00 0.00 0.00 83 1013.4
20260507181644 55 106 1.7 2.6 0.00 0.00 0.00 82 1013.1
20260507181145 55 99 1.7 2.6 0.00 0.00 0.00 82 1013.3
20260507180935 55 102 2.6 2.6 0.00 0.00 0.00 82 1013.1
20260507180144 56 89 2.6 2.6 0.00 0.00 0.00 81 1012.9
20260507175645 56 104 2.6 2.6 0.00 0.00 0.00 81 1012.8
20260507175419 57 117 1.7 2.6 0.00 0.00 0.00 80 1012.9
20260507174645 58 107 1.7 2.6 0.00 0.00 0.00 78 1012.6
20260507174416 58 105 2.6 2.6 0.00 0.00 0.00 77 1012.7
20260507173645 59 93 1.7 1.7 0.00 0.00 0.00 76 1012.6
20260507173144 60 116 1.7 1.7 0.00 0.00 0.00 74 1012.5
20260507172645 60 121 0.9 1.7 0.00 0.00 0.00 72 1012.5
20260507172422 62 158 0.9 2.6 0.00 0.00 0.00 71 1012.5
20260507171929 63 66 1.7 3.5 0.00 0.00 0.00 61 1012.5
20260507171145 64 87 0.0 3.5 0.00 0.00 0.00 65 1012.5
20260507170646 63 112 0.9 2.6 0.00 0.00 0.00 68 1012.4
20260507170145 64 93 0.9 1.7 0.00 0.00 0.00 65 1012.4
20260507165644 65 84 0.9 6.1 0.00 0.00 0.00 60 1012.2
20260507165145 66 78 3.5 6.1 0.00 0.00 0.00 59 1012.4
20260507164645 66 106 0.9 8.7 0.00 0.00 0.00 60 1012.3
20260507164145 65 244 0.9 8.7 0.00 0.00 0.00 60 1012.3
20260507163644 65 77 5.2 12.2 0.00 0.00 0.00 60 1012.3
20260507163418 65 135 0.0 12.2 0.00 0.00 0.00 61 1012.3
20260507162645 67 94 1.7 5.2 0.00 0.00 0.00 59 1012.2
20260507162144 67 171 0.9 5.2 0.00 0.00 0.00 58 1012.1
20260507161645 66 67 1.7 11.3 0.00 0.00 0.00 59 1012.2
20260507161144 65 51 0.0 11.3 0.00 0.00 0.00 60 1012.4
20260507160644 66 30 1.7 6.1 0.00 0.00 0.00 60 1012.4
20260507160144 65 136 1.7 11.3 0.00 0.00 0.00 61 1012.4
20260507155644 66 95 6.1 11.3 0.00 0.00 0.00 61 1012.3
20260507155145 66 296 0.9 5.2 0.00 0.00 0.00 60 1012.4
20260507154646 65 104 0.0 3.5 0.00 0.00 0.00 60 1012.3
20260507154145 64 35 0.0 5.2 0.00 0.00 0.00 62 1012.3
20260507153644 64 247 0.9 5.2 0.00 0.00 0.00 61 1012.5
20260507153419 64 96 0.0 7.0 0.00 0.00 0.00 61 1012.5
20260507152712 64 59 3.5 5.2 0.00 0.00 0.00 61 1012.4
20260507152655 64 95 0.0 7.0 0.00 0.00 0.00 61 1012.4
20260507151643 64 105 1.7 6.1 0.00 0.00 0.00 63 1012.6
20260507151143 64 40 0.9 6.1 0.00 0.00 0.00 61 1012.5
20260507150720 64 341 0.9 6.1 0.00 0.00 0.00 62 1012.4
20260507150655 64 95 1.7 6.1 0.00 0.00 0.00 62 1012.4
20260507145630 64 19 1.7 5.2 0.00 0.00 0.00 62 1012.8
20260507145126 64 55 3.5 6.1 0.00 0.00 0.00 62 1012.6
20260507144622 64 306 3.5 7.0 0.00 0.00 0.00 60 1012.6
20260507144119 65 306 4.3 7.8 0.00 0.00 0.00 59 1012.7
20260507143617 64 55 3.5 7.8 0.00 0.00 0.00 61 1012.7
20260507143109 64 55 1.7 7.0 0.00 0.00 0.00 62 1012.7
20260507142603 65 47 0.9 5.2 0.00 0.00 0.00 62 1012.5
20260507142103 65 78 2.6 3.5 0.00 0.00 0.00 61 1012.5
20260507141600 65 29 0.0 3.5 0.00 0.00 0.00 61 1012.6
20260507141336 65 330 1.7 7.0 0.00 0.00 0.00 60 1012.6
20260507140829 65 30 3.5 7.0 0.00 0.00 0.00 60 1012.6
20260507140110 65 92 2.6 7.0 0.00 0.00 0.00 61 1012.6
20260507135554 65 70 1.7 6.1 0.00 0.00 0.00 61 1012.6
20260507135056 65 73 2.6 7.8 0.00 0.00 0.00 60 1012.5
20260507134553 65 65 4.3 7.8 0.00 0.00 0.00 60 1012.4
20260507134057 66 324 3.5 6.1 0.00 0.00 0.00 59 1012.8
20260507133619 65 68 2.6 9.6 0.00 0.00 0.00 60 1012.5
20260507133610 65 141 4.3 9.6 0.00 0.00 0.00 60 1012.6
20260507132554 65 297 3.5 7.0 0.00 0.00 0.00 61 1012.5
20260507132057 66 330 2.6 7.8 0.00 0.00 0.00 60 1012.5
20260507131843 66 89 3.5 7.8 0.00 0.00 0.00 62 1012.6
20260507131057 66 85 2.6 6.1 0.00 0.00 0.00 61 1012.4
20260507130554 66 100 3.5 12.2 0.00 0.00 0.00 62 1012.6
20260507130110 66 101 1.7 12.2 0.00 0.00 0.00 63 1012.5
20260507125554 66 53 5.2 9.6 0.00 0.00 0.00 63 1012.8
20260507125057 66 15 1.7 9.6 0.00 0.00 0.00 63 1012.7
20260507124554 67 315 5.2 9.6 0.00 0.00 0.00 64 1012.6
20260507124335 67 253 0.9 5.2 0.00 0.00 0.00 66 1012.5
20260507123554 65 132 1.7 7.8 0.00 0.00 0.00 70 1012.6
20260507123057 65 114 6.1 7.8 0.00 0.00 0.00 74 1012.5
20260507122554 64 117 1.7 7.0 0.00 0.00 0.00 74 1012.5
20260507122057 64 101 3.5 8.7 0.00 0.00 0.00 74 1012.5
20260507121554 65 111 3.5 8.7 0.00 0.00 0.00 73 1012.6
20260507121100 64 112 5.2 7.8 0.00 0.00 0.00 73 1012.7
20260507120828 64 95 3.5 7.8 0.00 0.00 0.00 76 1012.5
20260507120110 64 108 5.2 7.8 0.00 0.00 0.00 77 1012.7
20260507115555 64 111 3.5 7.8 0.00 0.00 0.00 75 1012.8
20260507115058 63 96 3.5 6.1 0.00 0.00 0.00 74 1012.9
20260507114556 64 129 0.9 2.6 0.00 0.00 0.00 74 1012.7
20260507114058 64 60 0.0 2.6 0.00 0.00 0.00 73 1012.8
20260507113557 64 89 0.9 5.2 0.00 0.00 0.00 73 1012.9
20260507113058 64 358 0.0 5.2 0.00 0.00 0.00 73 1012.9
20260507112554 64 93 1.7 5.2 0.00 0.00 0.00 73 1013.0
20260507112058 64 52 1.7 6.1 0.00 0.00 0.00 73 1012.9
20260507111556 64 37 0.0 7.0 0.00 0.00 0.00 73 1012.9
20260507111149 64 276 2.6 7.8 0.00 0.00 0.00 72 1013.0
20260507111129 64 19 2.6 7.8 0.00 0.00 0.00 72 1012.8
20260507110106 64 41 4.3 7.8 0.00 0.00 0.00 72 1012.9
20260507105554 64 50 0.9 7.8 0.00 0.00 0.00 72 1012.9
20260507105056 64 329 6.1 7.8 0.00 0.00 0.00 71 1012.9
20260507104555 64 309 0.9 8.7 0.00 0.00 0.00 70 1012.6
20260507104058 64 80 2.6 8.7 0.00 0.00 0.00 70 1012.5
20260507103555 65 297 0.9 8.7 0.00 0.00 0.00 68 1012.6
20260507103058 65 332 6.1 8.7 0.00 0.00 0.00 68 1012.6
20260507102553 65 231 1.7 8.7 0.00 0.00 0.00 67 1012.7
20260507102104 66 283 5.2 7.0 0.00 0.00 0.00 66 1012.6
20260507101557 66 53 0.9 3.5 0.00 0.00 0.00 65 1012.6
20260507101052 66 65 2.6 7.0 0.00 0.00 0.00 65 1012.4
20260507100552 66 329 2.6 7.0 0.00 0.00 0.00 66 1012.4
20260507100052 66 65 3.5 5.2 0.00 0.00 0.00 68 1012.3
20260507095552 66 351 1.7 5.2 0.00 0.00 0.00 66 1012.3
20260507095334 66 74 1.7 9.6 0.00 0.00 0.00 68 1012.3
20260507094551 65 80 2.6 9.6 0.00 0.00 0.00 67 1012.2
20260507094052 66 326 2.6 7.0 0.00 0.00 0.00 68 1012.3
20260507093555 67 70 3.5 7.0 0.00 0.00 0.00 66 1012.2
20260507093055 67 138 1.7 7.0 0.00 0.00 0.00 65 1012.3
20260507092555 66 29 0.0 7.0 0.00 0.00 0.00 68 1012.1
20260507092055 66 93 3.5 6.1 0.00 0.00 0.00 67 1012.1
20260507091542 65 54 1.7 8.7 0.00 0.00 0.00 69 1012.2
20260507091042 64 29 3.5 8.7 0.00 0.00 0.00 70 1012.3
20260507090545 65 88 1.7 6.1 0.00 0.00 0.00 70 1012.0
20260507090046 66 86 4.3 7.0 0.00 0.00 0.00 67 1011.9
20260507085542 64 96 0.9 7.0 0.00 0.00 0.00 71 1012.2
20260507085042 64 325 3.5 7.8 0.00 0.00 0.00 70 1012.1
20260507084557 65 87 6.1 8.7 0.00 0.00 0.00 72 1011.9
20260507084043 64 81 1.7 8.7 0.00 0.00 0.00 72 1012.0
20260507083542 64 123 5.2 7.8 0.00 0.00 0.00 73 1011.9
20260507083042 65 302 0.9 7.8 0.00 0.00 0.00 71 1011.8
20260507082817 64 34 1.7 12.2 0.00 0.00 0.00 72 1011.7
20260507082044 63 44 3.5 12.2 0.00 0.00 0.00 73 1011.7
20260507081542 63 65 4.3 8.7 0.00 0.00 0.00 72 1011.7
20260507081042 63 9 0.9 8.7 0.00 0.00 0.00 73 1011.7
20260507080542 63 39 6.1 8.7 0.00 0.00 0.00 73 1011.7
20260507080044 63 3 1.7 7.8 0.00 0.00 0.00 73 1011.6
20260507075542 62 80 2.6 8.7 0.00 0.00 0.00 73 1011.8
20260507075041 62 98 1.7 8.7 0.00 0.00 0.00 74 1011.7
20260507074543 62 331 5.2 7.8 0.00 0.00 0.00 75 1011.6
20260507074045 62 76 2.6 7.8 0.00 0.00 0.00 74 1011.8
20260507073542 62 257 0.9 7.8 0.00 0.00 0.00 75 1011.7
20260507073043 61 98 2.6 7.8 0.00 0.00 0.00 76 1011.6
20260507072542 62 351 2.6 6.1 0.00 0.00 0.00 75 1011.7
20260507072042 63 133 0.9 8.7 0.00 0.00 0.00 74 1011.7
20260507071542 61 74 1.7 8.7 0.00 0.00 0.00 76 1011.7
20260507071042 60 128 2.6 6.1 0.00 0.00 0.00 78 1011.6
20260507070543 60 43 1.7 5.2 0.00 0.00 0.00 78 1011.4
20260507070042 61 110 0.9 3.5 0.00 0.00 0.00 78 1011.5
20260507065542 60 326 1.7 12.2 0.00 0.00 0.00 79 1011.4
20260507065042 60 87 0.9 12.2 0.00 0.00 0.00 79 1011.5
20260507064541 60 345 0.9 9.6 0.00 0.00 0.00 80 1011.6
20260507064041 59 99 6.1 9.6 0.00 0.00 0.00 80 1011.2
20260507063543 60 75 3.5 6.1 0.00 0.00 0.00 79 1011.1
20260507063045 60 18 0.9 7.8 0.00 0.00 0.00 79 1011.3
20260507062542 59 278 4.3 7.8 0.00 0.00 0.00 79 1011.0
20260507062043 59 55 1.7 7.8 0.00 0.00 0.00 80 1010.9
20260507061541 60 77 3.5 8.7 0.00 0.00 0.00 80 1011.0
20260507061042 59 38 0.9 8.7 0.00 0.00 0.00 80 1010.9
20260507060543 60 42 2.6 7.8 0.00 0.00 0.00 80 1010.9
20260507060042 59 101 3.5 7.0 0.00 0.00 0.00 80 1011.0
20260507055542 59 33 0.0 7.0 0.00 0.00 0.00 80 1010.9
20260507055042 60 112 1.7 6.1 0.00 0.00 0.00 80 1011.1
20260507054542 59 78 0.0 7.8 0.00 0.00 0.00 80 1010.9
20260507054042 59 97 1.7 7.8 0.00 0.00 0.00 80 1010.7
20260507053542 59 87 1.7 6.1 0.00 0.00 0.00 80 1010.7
20260507053043 59 11 0.9 3.5 0.00 0.00 0.00 80 1010.7
20260507052542 59 103 0.9 5.2 0.00 0.00 0.00 80 1010.5
20260507052042 59 236 1.7 5.2 0.00 0.00 0.00 80 1010.5
20260507051542 60 90 1.7 2.6 0.00 0.00 0.00 79 1010.2
20260507051327 59 190 0.9 6.1 0.00 0.00 0.00 80 1010.3
20260507050541 59 329 2.6 6.1 0.00 0.00 0.00 80 1010.1
20260507050042 59 66 2.6 7.8 0.00 0.00 0.00 80 1010.0
20260507045542 59 174 2.6 7.8 0.00 0.00 0.00 80 1010.0
20260507045041 59 106 1.7 6.1 0.00 0.00 0.00 81 1009.9
20260507044820 59 137 1.7 6.1 0.00 0.00 0.00 81 1009.8
20260507044041 59 84 1.7 7.0 0.00 0.00 0.00 81 1009.8
20260507043818 59 78 4.3 7.0 0.00 0.00 0.00 81 1009.7
20260507043325 59 342 1.7 2.6 0.00 0.00 0.00 81 1009.8
20260507042542 59 342 0.0 5.2 0.00 0.00 0.00 81 1009.7
20260507042047 59 92 1.7 7.8 0.00 0.00 0.00 81 1009.7
20260507041544 59 126 1.7 8.7 0.00 0.00 0.00 81 1009.8
20260507041047 59 96 5.2 8.7 0.00 0.00 0.00 81 1009.6
20260507040544 59 73 3.5 7.0 0.00 0.00 0.00 81 1009.6
20260507040340 59 89 0.9 5.2 0.00 0.00 0.00 81 1009.5
20260507035544 59 157 1.7 5.2 0.00 0.00 0.00 80 1009.5
20260507035328 59 138 1.7 5.2 0.00 0.00 0.00 80 1009.2
20260507034544 59 83 0.9 3.5 0.00 0.00 0.00 80 1009.3
20260507034047 59 112 2.6 7.8 0.00 0.00 0.00 80 1009.1
20260507033545 59 270 4.3 7.8 0.00 0.00 0.00 80 1009.0
20260507033047 59 33 0.0 6.1 0.00 0.00 0.00 80 1009.0
20260507032544 59 119 0.0 6.1 0.00 0.00 0.00 80 1008.7
20260507032330 59 142 0.9 8.7 0.00 0.00 0.00 80 1008.8
20260507031544 60 60 2.6 11.3 0.00 0.00 0.00 79 1008.8
20260507031047 60 118 2.6 11.3 0.00 0.00 0.00 79 1008.7
20260507030544 60 63 8.7 9.6 0.00 0.00 0.00 79 1008.6
20260507030059 60 108 4.3 6.1 0.00 0.00 0.00 79 1008.5
20260507025544 60 112 1.7 6.1 0.00 0.00 0.00 79 1008.7
20260507025323 60 21 0.0 6.1 0.00 0.00 0.00 78 1008.6
20260507024544 60 54 1.7 6.1 0.00 0.00 0.00 78 1008.6
20260507024048 60 125 0.9 6.1 0.00 0.00 0.00 79 1008.6
20260507023545 60 51 0.9 8.7 0.00 0.00 0.00 78 1008.7
20260507023047 60 147 0.0 8.7 0.00 0.00 0.00 78 1008.5
20260507022819 60 209 2.6 7.0 0.00 0.00 0.00 78 1008.4
20260507022100 60 58 2.6 8.7 0.00 0.00 0.00 77 1008.4
20260507021545 60 200 0.9 8.7 0.00 0.00 0.00 77 1008.3
20260507021047 60 123 0.9 11.3 0.00 0.00 0.00 77 1008.4
20260507020544 61 15 5.2 12.2 0.00 0.00 0.00 77 1008.4
20260507020338 61 93 0.9 13.0 0.00 0.00 0.00 77 1008.2
20260507015545 61 129 1.7 16.5 0.00 0.00 0.00 77 1008.1
20260507015047 61 75 3.5 16.5 0.00 0.00 0.00 77 1008.2
20260507014544 61 99 7.8 14.8 0.00 0.00 0.00 76 1008.2
20260507014047 61 24 4.3 14.8 0.00 0.00 0.00 76 1007.7
20260507013544 61 79 1.7 11.3 0.00 0.00 0.00 76 1008.1